Home   Weather   Loughton   Past weeks

Flag for United Kingdom Past Weather in Loughton, England, United Kingdom — Yesterday and Last 2 Weeks

Now
70 °F

Mild.


Feels Like: 77 °F
Forecast: 60 / 68 °F
Wind: 13 mph from South

Location: Gravesend-Broadness

Current Time: Jul 21, 2017 at 3:56:55 pm

Latest Report: Jul 21, 2017 at 3:00 pm


Visibility: N/A

Pressure: 29.78 "Hg

Humidity: 49%

Dew Point: 50 °F

Location of LoughtonLocation

Past Weather in Loughton — Graph

°F

Loughton Temperature Yesterday

Maximum temperature yesterday: 68 °F (at 10:00 am)
Minimum temperature yesterday: 58 °F (at 11:00 pm)
Average temperature yesterday: 65 °F

High & Low Weather Summary for the Past Weeks

 TemperatureHumidityPressure
High85 °F (Jul 7, 4:00 pm)99% (Jul 13, 7:00 am)30.25 "Hg (Jul 13, 7:00 am)
Low46 °F (Jul 13, 5:00 am)33% (Jul 8, 6:00 pm)29.65 "Hg (Jul 12, 3:00 am)
Average67 °F71%29.98 "Hg
* Reported Jul 6 2:00 pm — Jul 21 2:00 pm, Loughton. Weather by CustomWeather, © 2017

Note: Actual official high and low records may vary slightly from our data, if they occured in-between our weather recording intervals... More about our weather records

Advertising

Loughton Weather History for the Previous 24 Hours

Scroll right to see more
 ConditionsComfort  
Time TempWeatherWind HumidityBarometerVisibility
2:00 pm
Fri, Jul 21
69 °FMild.13 mph47%29.79 "HgN/A
12:50 pm70 °FMild.14 mph52%29.80 "HgN/A
12:00 pm67 °FMild.14 mph56%29.80 "HgN/A
11:00 am68 °FMild.10 mph59%29.81 "HgN/A
10:00 am68 °FMild.14 mph57%29.83 "HgN/A
9:00 am65 °FMild.13 mph67%29.83 "HgN/A
8:00 am62 °FCool.9 mph74%29.84 "HgN/A
7:00 am57 °FCool.6 mph83%29.84 "HgN/A
6:00 am53 °FCool.7 mph92%29.84 "HgN/A
5:00 am51 °FCool.5 mph92%29.85 "HgN/A
4:00 am52 °FCool.6 mph92%29.86 "HgN/A
3:00 am53 °FCool.7 mph90%29.86 "HgN/A
2:00 am53 °FCool.6 mph88%29.87 "HgN/A
12:50 am55 °FCool.6 mph84%29.87 "HgN/A
12:00 am57 °FCool.8 mph79%29.87 "HgN/A
11:00 pm
Thu, Jul 20
58 °FCool.9 mph76%29.87 "HgN/A
10:00 pm60 °FCool.9 mph71%29.87 "HgN/A
9:00 pm62 °FMild.12 mph63%29.85 "HgN/A
8:00 pm64 °FMild.15 mph59%29.84 "HgN/A
7:00 pm67 °FMild.15 mph48%29.82 "HgN/A
6:00 pm68 °FMild.14 mph45%29.81 "HgN/A
5:00 pm67 °FMild.17 mph48%29.80 "HgN/A
4:00 pm67 °FMild.16 mph52%29.79 "HgN/A
3:00 pm66 °FMild.14 mph63%29.78 "HgN/A
Weather by CustomWeather, © 2017

See weather overviewHow to use our weather pages